Погода в Переторгах

Россия / Брянская область     52°58′32″N   34°00′42″E
темп.,
°C
ветер,
м/с
пор.,
м/с
влажн.,
%
обл.,
%
осадки,
мм/ч
давл.,
гПа
погр.,
м
7 мая, пт
пт700:00+6з3587100 0.0 101176
03:00+4зюз3485100 0.0 101266
06:00+4юз33805 0.0 101360
09:00+10ююз58597 0.0 1014534
12:00+13ююз684621 0.0 10131873
15:00+15ююз6848100 0.0 10122271
18:00+12ю4962100 0.0 1011519
21:00+11ююв71461100 0.0 1009965
8 мая, сб
сб800:00+10ююв71588100 1.6 10071027
03:00+9ююв51295100 4.8 1005820
06:00+9ю3798100 2.3 1003339
09:00+10зсз3795100 6.1 1003324
12:00+10зюз5987100 1.0 1004663
15:00+11зюз9106593 1.1 10061668
18:00+4зсз91695100 0.4 1010849
21:00+5з410885 0.5 1013363
9 мая, вс
вс900:00+3з411885 0.0 1015315
03:00+2з411904 0.0 1017306
06:00+2з410945 0.0 1019334
09:00+7сз68685 0.0 1021927
12:00+10сз684973 0.0 10222051
15:00+12ссз574231 0.0 10232384
18:00+12ссз46525 0.0 10241496
21:00+6ссз12685 0.0 102710
10 мая, пн
пн1000:00+4зсз117218 0.0 102810
03:00+4юз117218 0.0 103010
06:00+4ююз11720 0.0 103110
09:00+11ююз11545 0.0 1031375
12:00+15ююз11453 0.0 10311404
15:00+16юз21423 0.0 10301671
18:00+15зсз11462 0.0 10301188
21:00+10всв22680 0.0 103010
11 мая, вт
вт1100:00+7юв22730 0.0 103124
03:00+6юв11732 0.0 103110
06:00+6в22767 0.0 103223
09:00+13в35585 0.0 1031513
12:00+17в56440 0.0 10291269
15:00+18в56420 0.0 10281316
18:00+17в46550 0.0 1027652
21:00+11в39772 0.0 1027155